{"data":{"norad_id":61603,"epoch":"2026-09-19T14:29:27.628800Z","epoch_age_seconds":95664,"freshness":"FRESH","line1":"1 61603U 24188K   26262.60379200 -.00000201  00000+0 -60154-3 0  9997","line2":"2 61603  87.8967   2.2969 0001103  92.6377 267.4877 13.11416371 96824","mean_motion":13.11416371,"eccentricity":0.0001103,"inclination_deg":87.8967,"raan_deg":2.2969,"arg_perigee_deg":92.6377,"mean_anomaly_deg":267.4877,"bstar":-0.00060154,"rev_number":9682,"period_min":109.80494310148,"perigee_km":1216.8470956497,"apogee_km":1218.5227339641,"semimajor_km":7595.8219148069,"source":"CELESTRAK","updated_at":"2026-09-20T09:00:44.799970Z"}}